Location: *
(49.0044°N, 9.5056°E)
Time: 20:04:24
(UTC+00:00)

DMSP B5D2-2 - Pass Details

Date: 22 September 2019
Orbit: 791 x 806 km, 98.4° (Epoch: 17 October)

Event Time Altitude Azimuth Distance (km) Brightness Sun altitude
Rises 19:48:45 0° 16° (NNE) 3,334 7.5 -24.0°
Reaches altitude 10° 19:51:08 10° 19° (NNE) 2,399 6.7 -24.3°
Enters shadow 19:56:01 63° 77° (ENE) 901 4.1 -25.0°
